Location: Härggis
(46.9540°N, 8.4897°E)
Time: 23:29:20
(UTC+00:00)

Cosmos 1603 - Pass Details

Date: 27 May 2022
Orbit: 829 x 861 km, 71.0° (Epoch: 02 July)

Event Time Altitude Azimuth Distance (km) Brightness Sun altitude
Exits shadow 02:05:59 11° 184° (S) 2,373 5.6 -12.5°
Maximum altitude 02:11:12 52° 110° (ESE) 1,040 4.3 -12.0°
Drops below altitude 10° 02:16:41 10° 35° (NE) 2,476 7.7 -11.4°
Sets 02:19:12 0° 31° (NNE) 3,421 8.8 -11.1°
